Bowling Green, Kentucky, United States (42101)
Lat: 36.99N, Lon: 86.44W
Wx Zone: KYZ071
Local Info
Past Weather Observations for Friday, October 24, 2014

NOTE: This archive is for the closest National Weather Service station to Bowling Green. Information may differ from the station used for current weather conditions.

Click here for Long-term Archive

Time Weather Temperature Dewpoint Humidity Pressure Winds Precip Visibility
23:55
Clear
Fog And Mist
45°F / 7°C 45°F / 7°C 100% 30.09 in
(1019 mb)
Calm - 5SM
23:35
Clear
45°F / 7°C 45°F / 7°C 100% 30.09 in
(1019 mb)
Calm - 7SM
23:15
Clear
45°F / 7°C 45°F / 7°C 100% 30.09 in
(1019 mb)
Calm - 7SM
22:55
Clear
Fog And Mist
45°F / 7°C 45°F / 7°C 100% 30.09 in
(1019 mb)
Calm - 5SM
22:35
Clear
46°F / 8°C 46°F / 8°C 100% 30.09 in
(1019 mb)
Calm - 7SM
22:15
Clear
46°F / 8°C 46°F / 8°C 100% 30.09 in
(1019 mb)
Calm - 7SM
21:55
Clear
46°F / 8°C 46°F / 8°C 100% 30.09 in
(1019 mb)
Calm - 7SM
21:35
Clear
46°F / 8°C 46°F / 8°C 100% 30.09 in
(1019 mb)
Calm - 10SM
21:15
Clear
48°F / 9°C 48°F / 9°C 100% 30.09 in
(1019 mb)
Calm - 10SM
20:55
Clear
48°F / 9°C 48°F / 9°C 100% 30.09 in
(1019 mb)
Calm - 10SM
20:35
Clear
48°F / 9°C 48°F / 9°C 100% 30.09 in
(1019 mb)
Calm - 10SM
20:15
Clear
50°F / 10°C 50°F / 10°C 100% 30.09 in
(1019 mb)
Calm - 10SM
19:55
Clear
50°F / 10°C 45°F / 7°C 82% 30.09 in
(1019 mb)
Calm - 10SM
19:35
Clear
50°F / 10°C 45°F / 7°C 82% 30.09 in
(1019 mb)
Calm - 10SM
19:15
Clear
52°F / 11°C 46°F / 8°C 82% 30.09 in
(1019 mb)
Calm - 10SM
18:55
Clear
52°F / 11°C 46°F / 8°C 82% 30.09 in
(1019 mb)
Calm - 10SM
18:35
Clear
52°F / 11°C 45°F / 7°C 77% 30.09 in
(1019 mb)
Calm - 10SM
18:15
Clear
54°F / 12°C 46°F / 8°C 77% 30.09 in
(1019 mb)
Calm - 10SM
17:50
Clear
55°F / 13°C 46°F / 8°C 72% 30.09 in
(1019 mb)
Calm - 10SM
17:35
Clear
57°F / 14°C 45°F / 7°C 63% 30.06 in
(1018 mb)
Calm - 10SM
17:15
Clear
57°F / 14°C 46°F / 8°C 67% 30.09 in
(1019 mb)
Calm - 10SM
16:55
Clear
61°F / 16°C 45°F / 7°C 55% 30.06 in
(1018 mb)
Calm - 10SM
16:35
Clear
63°F / 17°C 46°F / 8°C 56% 30.06 in
(1018 mb)
Calm - 10SM
16:15
Clear
64°F / 18°C 46°F / 8°C 52% 30.06 in
(1018 mb)
Calm - 10SM
15:55
Clear
64°F / 18°C 45°F / 7°C 49% 30.06 in
(1018 mb)
SSW 4.6 mph
(SSW 7 kph)
- 10SM
15:35
Clear
66°F / 19°C 45°F / 7°C 46% 30.06 in
(1018 mb)
SSW 4.6 mph
(SSW 7 kph)
- 10SM
15:15
Clear
68°F / 20°C 43°F / 6°C 40% 30.06 in
(1018 mb)
NW 3.5 mph
(NW 6 kph)
- 10SM
14:55
Clear
68°F / 20°C 43°F / 6°C 40% 30.06 in
(1018 mb)
SSW 3.5 mph
(SSW 6 kph)
- 10SM
14:35
Clear
68°F / 20°C 43°F / 6°C 40% 30.06 in
(1018 mb)
W 3.5 mph
(W 6 kph)
- 10SM
14:15
Clear
68°F / 20°C 43°F / 6°C 40% 30.06 in
(1018 mb)
SSW 5.8 mph
(SSW 9 kph)
- 10SM
13:55
Clear
68°F / 20°C 41°F / 5°C 38% 30.06 in
(1018 mb)
Calm - 10SM
13:35
Clear
68°F / 20°C 41°F / 5°C 38% 30.06 in
(1018 mb)
Calm - 10SM
13:15
Clear
68°F / 20°C 41°F / 5°C 38% 30.06 in
(1018 mb)
Calm - 10SM
12:55
Clear
68°F / 20°C 43°F / 6°C 40% 30.09 in
(1019 mb)
Calm - 10SM
12:35
Clear
66°F / 19°C 43°F / 6°C 43% 30.09 in
(1019 mb)
W 4.6 mph
(W 7 kph)
- 10SM
12:15
Clear
68°F / 20°C 39°F / 4°C 35% 30.09 in
(1019 mb)
Calm - 10SM
11:55
Clear
66°F / 19°C 39°F / 4°C 37% 30.09 in
(1019 mb)
Calm - 10SM
11:35
Partly Cloudy
64°F / 18°C 41°F / 5°C 43% 30.12 in
(1020 mb)
ENE 3.5 mph
(ENE 6 kph)
- 10SM
11:15
Clear
64°F / 18°C 39°F / 4°C 40% 30.12 in
(1020 mb)
Calm - 10SM
10:55
Clear
64°F / 18°C 39°F / 4°C 40% 30.12 in
(1020 mb)
Calm - 10SM
10:35
Clear
64°F / 18°C 39°F / 4°C 40% 30.12 in
(1020 mb)
NW 3.5 mph
(NW 6 kph)
- 10SM
10:15
Clear
63°F / 17°C 43°F / 6°C 49% 30.12 in
(1020 mb)
Calm - 10SM
09:55
Clear
63°F / 17°C 43°F / 6°C 49% 30.15 in
(1021 mb)
Calm - 10SM
09:35
Clear
63°F / 17°C 45°F / 7°C 52% 30.15 in
(1021 mb)
Calm - 10SM
09:15
Clear
59°F / 15°C 45°F / 7°C 59% 30.12 in
(1020 mb)
Calm - 10SM
08:55
Clear
57°F / 14°C 46°F / 8°C 67% 30.12 in
(1020 mb)
Calm - 10SM
08:35
Clear
55°F / 13°C 46°F / 8°C 72% 30.15 in
(1021 mb)
Calm - 10SM
08:15
Clear
55°F / 13°C 46°F / 8°C 72% 30.15 in
(1021 mb)
Calm - 10SM
07:55
Clear
52°F / 11°C 46°F / 8°C 82% 30.15 in
(1021 mb)
Calm - 10SM
07:35
Clear
50°F / 10°C 46°F / 8°C 88% 30.15 in
(1021 mb)
Calm - 10SM
07:15
Clear
46°F / 8°C 46°F / 8°C 100% 30.15 in
(1021 mb)
Calm - 7SM
06:55
Clear
Fog And Mist
43°F / 6°C 43°F / 6°C 100% 30.12 in
(1020 mb)
Calm - 5SM
06:35
Partly Cloudy
Fog And Mist
41°F / 5°C 41°F / 5°C 100% 30.12 in
(1020 mb)
Calm - 4SM
06:15
Clear
Fog And Mist
41°F / 5°C 41°F / 5°C 100% 30.12 in
(1020 mb)
Calm - 2SM
05:55
Clear
Fog And Mist
41°F / 5°C 41°F / 5°C 100% 30.12 in
(1020 mb)
Calm - 2 1/2SM
05:35
Clear
Fog And Mist
41°F / 5°C 41°F / 5°C 100% 30.15 in
(1021 mb)
Calm - 4SM
05:15
Clear
43°F / 6°C 43°F / 6°C 100% 30.12 in
(1020 mb)
Calm - 7SM
04:55
Clear
Fog And Mist
43°F / 6°C 43°F / 6°C 100% 30.12 in
(1020 mb)
Calm - 5SM
04:35
Clear
43°F / 6°C 43°F / 6°C 100% 30.12 in
(1020 mb)
Calm - 7SM
04:15
Clear
43°F / 6°C 43°F / 6°C 100% 30.12 in
(1020 mb)
Calm - 7SM
03:55
Clear
45°F / 7°C 45°F / 7°C 100% 30.12 in
(1020 mb)
Calm - 7SM
03:35
Clear
46°F / 8°C 45°F / 7°C 93% 30.12 in
(1020 mb)
Calm - 7SM
03:15
Clear
45°F / 7°C 45°F / 7°C 100% 30.12 in
(1020 mb)
Calm - 7SM
02:55
Clear
45°F / 7°C 45°F / 7°C 100% 30.12 in
(1020 mb)
Calm - 7SM
02:35
Clear
45°F / 7°C 45°F / 7°C 100% 30.12 in
(1020 mb)
Calm - 7SM
02:15
Clear
45°F / 7°C 45°F / 7°C 100% 30.12 in
(1020 mb)
Calm - 7SM
01:55
Clear
45°F / 7°C 45°F / 7°C 100% 30.12 in
(1020 mb)
Calm - 7SM
01:35
Clear
45°F / 7°C 45°F / 7°C 100% 30.12 in
(1020 mb)
Calm - 7SM
01:15
Clear
45°F / 7°C 45°F / 7°C 100% 30.12 in
(1020 mb)
Calm - 7SM
00:55
Clear
45°F / 7°C 45°F / 7°C 100% 30.12 in
(1020 mb)
Calm - 7SM
00:35
Clear
43°F / 6°C 43°F / 6°C 100% 30.12 in
(1020 mb)
Calm - 7SM
00:15
Clear
45°F / 7°C 45°F / 7°C 100% 30.12 in
(1020 mb)
Calm - 7SM
Time Weather Temperature Dewpoint Humidity Pressure Winds Precip Visibility


Weather for websites

WeatherForYou.com, LLC is not responsible for any damages or problems caused by this service. Current weather conditions are obtained from the closest station including government and personal stations which may have varying degrees of accuracy. Weather forecasts are derived from the NOAA NDFD. Like all things, this site belongs to Jesus Christ... He just trusts me to maintain it. If you have any questions or comments email webmaster@weatherforyou.com

Copyright © 2014, WeatherForYou.com LLC. All rights reserved.